| time (UTC) | temp F | wind direction | speed knots | gust knots | rain 1hr in | rain 24hr in | rain mn in | humidity % | barometer mb |
| 20260502123353 | 84 | 293 | 3.5 | 6.1 | 0.00 | 0.00 | 0.00 | 67 | 1013.9 |
| 20260502114300 | 82 | 180 | 6.1 | 6.1 | 0.00 | 0.00 | 0.00 | 66 | 1013.2 |
| 20260502113756 | 82 | 158 | 6.1 | 6.1 | 0.00 | 0.00 | 0.00 | 66 | 1012.9 |
| 20260502071212 | 86 | 225 | 6.1 | 11.3 | 0.00 | 0.00 | 0.00 | 57 | 1012.2 |
| 20260502061620 | 88 | 180 | 6.1 | 9.6 | 0.00 | 0.00 | 0.00 | 56 | 1012.5 |
| 20260502060133 | 88 | 180 | 6.1 | 9.6 | 0.00 | 0.00 | 0.00 | 56 | 1012.5 |
| 20260502054110 | 88 | 180 | 0.0 | 0.0 | 0.00 | 0.00 | 0.00 | 56 | 1012.5 |
| 20260502023610 | 93 | 225 | 0.0 | 0.0 | 0.00 | 0.00 | 0.00 | 67 | 1010.8 |
| 20260502021557 | 93 | 203 | 0.0 | 0.0 | 0.00 | 0.00 | 0.00 | 68 | 1010.5 |
| 20260502020011 | 93 | 203 | 0.0 | 0.0 | 0.00 | 0.00 | 0.00 | 67 | 1010.2 |
| 20260502015531 | 93 | 225 | 0.0 | 6.1 | 0.00 | 0.00 | 0.00 | 67 | 1010.2 |
| 20260502011422 | 93 | 113 | 0.0 | 0.0 | 0.00 | 0.00 | 0.00 | 64 | 1009.5 |
| 20260502004036 | 97 | 270 | 0.0 | 6.1 | 0.00 | 0.00 | 0.00 | 61 | 1008.8 |
| 20260502002028 | 97 | 203 | 6.1 | 19.1 | 0.00 | 0.00 | 0.00 | 59 | 1008.5 |
| 20260502001500 | 99 | 113 | 6.1 | 11.3 | 0.00 | 0.00 | 0.00 | 59 | 1008.1 |
| 20260501231519 | 104 | 113 | 9.6 | 21.7 | 0.00 | 0.00 | 0.00 | 52 | 1007.4 |
| 20260501212912 | 118 | 180 | 6.1 | 9.6 | 0.00 | 0.00 | 0.00 | 37 | 1007.8 |
| 20260501204839 | 118 | 180 | 9.6 | 9.6 | 0.00 | 0.00 | 0.00 | 37 | 1008.5 |
| 20260501195737 | 117 | 203 | 6.1 | 11.3 | 0.00 | 0.00 | 0.00 | 38 | 1009.5 |
| 20260501192222 | 118 | 225 | 9.6 | 11.3 | 0.00 | 0.00 | 0.00 | 37 | 1010.5 |
| 20260501184156 | 117 | 180 | 9.6 | 11.3 | 0.00 | 0.00 | 0.00 | 39 | 1011.2 |
| 20260501182641 | 115 | 180 | 11.3 | 11.3 | 0.00 | 0.00 | 0.00 | 40 | 1011.2 |
| 20260501174604 | 111 | 203 | 9.6 | 11.3 | 0.00 | 0.00 | 0.00 | 42 | 1011.8 |